Tracking 19283 objects as of 17-Nov-2018
HD Live streaming from Space Station
objects crossing your sky now

INTELSAT 2-F2

Track INTELSAT 2-F2 now!
INTELSAT 2-F2 is classified as:


NORAD ID: 2639
Int'l Code: 1967-001A
Perigee: 35,735.2 km
Apogee: 35,844.0 km
Inclination: 3.6 °
Period: 1,435.9 minutes
Semi major axis: 42160 km
RCS: 3.1622 m2 (large)
Launch date: January 11, 1967
Source: International Telecommunications Satellite Organization (ITSO)
Launch site: AIR FORCE EASTERN TEST RANGE (AFETR)
aabbcc
Your satellite tracking list
Your tracking list is empty




NASA's NSSDC Master Catalog

Two Line Element Set (TLE):
1  2639U 67001A   18321.49361764 -.00000025  00000-0  00000+0 0  9996
2  2639   3.5868 294.2150 0012898 308.0284 161.1109  1.00286599 91490
Source of the keplerian elements: AFSPC